Regional Weather Roundup
Issued by NWS

Home | Current Version | Previous Version | Text Only | Print | Product List | Glossary Off
Versions: 1 2 3 4 5 6 7 8 9 10 11 12 13 14 15 16 17 18 19 20 21 22 23 24 25 26 27 28 29 30 31 32 33 34 35 36 37 38 39 40 41 42 43 44 45 46 47 48 49 50

000
ASUS43 KMPX 061601
RWRMN
WEATHER ROUNDUP FOR MINNESOTA
NATIONAL WEATHER SERVICE TWIN CITIES/CHANHASSEN MN
1100 AM CDT WED MAY 06 2015


NOTE: "FAIR" INDICATES FEW OR NO CLOUDS BELOW 12,000 FEET WITH NO
SIGNIFICANT WEATHER AND/OR OBSTRUCTIONS TO VISIBILITY. N/A MEANS
CURRENT SKY AND/OR WEATHER CONDITIONS ARE NOT AVAILABLE.

MNZ060>063-068>070-061700-
   Twin Cities Metro

CITY           SKY/WX    TMP DP  RH WIND       PRES   REMARKS
TWIN CITIES    CLOUDY    60  57  89 E14       30.03F FOG
ST PAUL        CLOUDY    59  57  93 SE9       30.05S FOG
CRYSTAL        CLOUDY    60  56  86 SE10      30.02F FOG
BLAINE         CLOUDY    61  57  88 E8        30.03F FOG
LAKEVILLE      CLOUDY    59  57  94 E10       30.03F FOG
EDEN PRAIRIE   CLOUDY    60  56  86 SE12      30.01F
SOUTH ST PAUL  CLOUDY    59  57  91 SE6       30.04F FOG
LAKE ELMO      CLOUDY    59  55  88 SE5       30.06S FOG
$$
MNZ001>005-007-008-013>017-022>024-027-028-061700-
   Northwest Minnesota

CITY           SKY/WX    TMP DP  RH WIND       PRES   REMARKS
BEMIDJI        CLOUDY    62  54  74 SE13      29.97F
HALLOCK        CLOUDY    68  55  64 S17       29.88S
ROSEAU         PTSUNNY   63  54  72 SE9       29.93F
WARROAD        PTSUNNY   63  54  72 SE8       29.95F
THIEF RVR FALL PTSUNNY   68  55  64 S14       29.92S
CROOKSTON      CLOUDY    64  55  72 S17       29.92R
FOSSTON        PTSUNNY   64  54  68 SE9       29.93S
DETROIT LAKES  CLOUDY    59  55  88 SE14      29.96S
MOORHEAD       CLOUDY    59  57  94 SE12G20   29.91F
PARK RAPIDS    CLOUDY    59  54  83 SE16      29.98S
MAHNOMEN       PTSUNNY   61  55  79 S13G21    29.94S
$$
MNZ006-009>011-018-025>026-061700-
   North Central Minnesota

CITY           SKY/WX    TMP DP  RH WIND       PRES   REMARKS
BAUDETTE       CLOUDY    52  49  89 SE10      30.00S
FLAG ISLAND    PTSUNNY   55  45  67 SE10      29.96F
INTL FALLS     CLOUDY    55  50  83 E5        30.03S THUNDER
WASKISH        CLOUDY    63  52  67 CALM      29.97F
BIG FORK       CLOUDY    61  50  67 SE8       30.02S
LONGVILLE      CLOUDY    61  54  77 SE8       30.01S
GRAND RAPIDS   CLOUDY    57  48  72 SE9       30.04S
CRANE LAKE     CLOUDY    57  46  67 SE5       30.08S
COOK           CLOUDY    57  46  67 SE8       30.06F
WALKER         CLOUDY    58  53  81 SE6       29.99F
$$
MNZ012-019>021-037-061700-
   Northeast Minnesota

CITY           SKY/WX    TMP DP  RH WIND       PRES   REMARKS
DULUTH         CLOUDY    52  45  77 E12       30.09S
ELY            CLOUDY    63  43  48 S9        30.08F
HIBBING        CLOUDY    54  48  80 SE13      30.07S
EVELETH        HVY RAIN  52  48  87 E8        30.09F
DULUTH HARBOR  CLOUDY    43  37  81 E9        30.12S
TWO HARBORS    DRIZZLE   52  45  76 CALM      30.11R
SILVER BAY     CLOUDY    57  34  41 E7        30.12S
GRAND MARAIS     N/A     49  33  54 NE7       30.17S
G MARAIS ARPRT PTSUNNY   57  27  30 SE8       30.17S
$$
MNZ029>031-032-039>041-046>048-054>057-064-061700-
   West Central Minnesota

CITY           SKY/WX    TMP DP  RH WIND       PRES   REMARKS
FERGUS FALLS   LGT RAIN  59  57  94 SE15      29.94S
WHEATON        DRIZZLE   57  55  94 SE22      29.91S
MORRIS         CLOUDY    61  59  94 SE16G22   29.91F FOG
ALEXANDRIA     CLOUDY    57  56  96 SE14      29.96F FOG
ELBOW LAKE     LGT RAIN  58  56  96 SE15G21   29.92F
WADENA         CLOUDY    57  55  94 SE13      29.97F FOG
GLENWOOD       CLOUDY    57  55  94 E16       29.97F
APPLETON       CLOUDY    63  61  94 SE16G22   29.90F FOG
BENSON         DRIZZLE   61  57  88 SE10G20   29.93F
ORTONVILLE     CLOUDY    61  57  88 SE12      29.89F FOG
MADISON        CLOUDY    63  61  94 SE20      29.89F FOG
WILLMAR        CLOUDY    61  59  94 SE17      29.97S FOG
$$
MNZ033>034-036-042>043-049>051-058-059-061700-
   Central Minnesota

CITY           SKY/WX    TMP DP  RH WIND       PRES   REMARKS
ST CLOUD       CLOUDY    58  55  90 SE9       30.01S FOG
SAUK CENTRE    LGT RAIN  58  56  93 E10       29.98F
PAYNESVILLE    CLOUDY    55  55 100 E14       29.98F FOG
AITKIN         CLOUDY    61  52  72 E7        30.02S
PINE RIVER     CLOUDY    57  54  88 SE12      30.04S
BRAINERD       CLOUDY    57  53  86 SE9       30.02F
STAPLES        CLOUDY    57  54  88 SE7       29.99F
LONG PRAIRIE   CLOUDY    55  54  94 E8        30.00S FOG
LITTLE FALLS   CLOUDY    55  54  94 E7        30.01S FOG
LITCHFIELD     CLOUDY    61  61 100 E16       29.99F FOG
BUFFALO        CLOUDY    60  55  84 E9        30.02F HAZE
MAPLE LAKE     CLOUDY    60  58  93 SE7       30.02F FOG
$$
MNZ037-044-045-052-053-061700-
   East Central Minnesota

CITY           SKY/WX    TMP DP  RH WIND       PRES   REMARKS
PRINCETON      CLOUDY    59  55  88 E9        30.03F FOG
MORA           CLOUDY    55  50  82 SE9       30.07S
CAMBRIDGE      PTSUNNY   61  52  72 SE8       30.03F HAZE
RUSH CITY      CLOUDY    58  53  83 SE10      30.06S
MOOSE LAKE     CLOUDY    59  52  77 S7        30.04F
HINCKLEY       CLOUDY    59  54  82 SE7       30.06F
CLOQUET        CLOUDY    52  45  76 E8        30.07F
MCGREGOR       CLOUDY    59  52  77 SE10      30.05F
$$
MNZ071>073-080-081-089-090-097-098-061700-
   Southwest Minnesota

CITY           SKY/WX    TMP DP  RH WIND       PRES   REMARKS
MONTEVIDEO     CLOUDY    63  61  94 S17       29.93S FOG
GRANITE FALLS  CLOUDY    63  58  85 SE18G25   29.93F
CANBY          CLOUDY    64  61  91 SE14G20   29.89F FOG
MARSHALL       CLOUDY    66  57  72 SE18G24   29.89F
REDWOOD FALLS  CLOUDY    63  59  87 SE18G24   29.93F FOG
OLIVIA         CLOUDY    59  55  88 SE16G23   29.95F FOG
WORTHINGTON    CLOUDY    66  57  72 SE21G30   29.89F
JACKSON        CLOUDY    63  61  94 SE21      29.93F FOG
TRACY          CLOUDY    66  61  84 SE15      29.91F
SLAYTON        CLOUDY    64  61  90 SE20      29.90F FOG
$$
MNZ065>067-074>077-082>085-091>093-061700-
   South Central Minnesota

CITY           SKY/WX    TMP DP  RH WIND       PRES   REMARKS
MANKATO        PTSUNNY   64  57  77 SE15      29.99F
NEW ULM        PTSUNNY   64  59  82 SE14      29.96F
ST JAMES       PTSUNNY   66  61  82 E17       29.96F
FAIRMONT       PTSUNNY   66  41  39 SE17G23   29.94F
GLENCOE        CLOUDY    65  60  84 E16       29.99F
FARIBAULT      CLOUDY    63  57  82 E13G18    30.03F
OWATONNA       PTSUNNY   64  57  77 SE18      30.02F
WASECA         PTSUNNY   63  55  77 SE17G24   30.02F
ALBERT LEA     CLOUDY    59  59 100 SE15G21   30.01F FOG
$$
MNZ078>079-086>088-094>096-061700-
   Southeast Minnesota

CITY           SKY/WX    TMP DP  RH WIND       PRES   REMARKS
ROCHESTER      CLOUDY    60  58  92 SE18      30.07S FOG
RED WING       CLOUDY    57  55  94 SE13      30.06S FOG
STANTON        CLOUDY    63  57  82 SE10G16   30.03F HAZE
DODGE CENTER   CLOUDY    63  59  88 SE16      30.04F FOG
WINONA         CLOUDY    59  55  88 SE12      30.09F FOG
AUSTIN         CLOUDY    63  59  88 SE12G18   30.03F FOG
PRESTON        CLOUDY    59  56  91 SE10      30.08F FOG
$$
ABBREVIATIONS USED IN REMARKS
   TC - TEMPERATURES IN CELSIUS
  WCI - WIND CHILL INDEX
   HX - HEAT INDEX
  VSB - VISIBILITY
$$



USA.gov is the U.S. government's official web portal to all federal, state and local government web resources and services.